Vorticity
nan nan nan nan nan nan nan nan nan nan nan nan nan nan nan nan nan nan nan nan nan nan nan nan nan nan nan nan nan nan nan nan nan nan nan nan nan nan nan nan nan nan nan nan nan nan nan
nan 6 5 5 5 5 5 6 6 6 5 5 5 6 6 6 6 6 6 6 7 10 11 8 8 13 12 8 7 4 8 10 8 9 8 10 9 9 8 8 8 8 9 8 6 6 nan
nan 5 5 6 5 5 5 5 6 5 5 5 5 6 6 6 6 7 7 7 9 13 12 9 10 13 8 9 5 7 10 9 7 7 7 6 8 10 8 8 8 8 6 8 10 8 nan
nan 6 6 5 5 5 5 6 6 6 7 5 5 6 6 6 6 6 7 9 15 17 11 8 11 11 6 6 7 7 9 7 7 9 7 6 9 10 10 8 7 8 6 9 9 8 nan
nan 7 7 7 6 5 5 5 6 6 6 7 7 6 6 6 6 6 7 14 20 16 8 8 10 8 8 7 8 8 8 7 9 8 8 10 10 9 8 7 3 9 10 5 6 8 nan
nan 7 7 7 7 6 6 6 6 5 7 7 6 7 6 6 6 7 17 22 16 9 11 9 5 5 9 7 7 9 8 8 10 10 9 8 10 6 6 9 10 8 7 7 7 7 nan
nan 7 7 7 7 7 6 6 6 6 5 6 7 7 6 6 6 10 22 16 10 8 9 11 7 7 5 9 9 8 8 8 7 10 8 6 9 10 9 7 11 11 8 7 8 9 nan
nan 11 10 9 8 9 8 7 7 6 5 6 6 6 6 6 5 20 19 11 10 8 5 11 10 8 9 9 8 8 9 9 9 8 3 10 8 10 10 9 9 7 7 8 8 6 nan
nan 12 16 14 12 12 11 10 9 7 6 5 5 5 6 5 18 19 12 7 8 9 11 6 11 9 9 8 9 9 9 9 8 8 10 5 10 10 5 4 8 8 8 10 8 9 nan
nan 16 15 15 12 9 11 16 14 10 10 8 7 6 5 16 19 9 10 9 8 6 9 11 10 10 9 7 9 9 9 10 11 11 9 3 11 8 7 8 8 8 10 8 8 12 nan
nan 8 9 10 7 7 9 14 15 13 13 10 9 11 11 14 8 8 11 11 7 7 4 15 10 9 11 9 8 8 8 11 12 10 7 12 9 6 7 12 7 8 9 9 10 8 nan
nan 10 12 9 9 8 8 10 12 12 9 10 7 6 11 11 11 7 10 9 6 11 9 10 11 8 7 9 7 8 8 8 10 11 5 12 9 11 6 9 12 12 5 5 9 8 nan
nan 6 7 9 9 10 11 11 6 6 7 10 7 6 6 9 8 10 10 7 11 7 9 12 9 9 9 10 8 9 10 8 5 7 9 11 8 9 9 4 8 8 5 5 5 12 nan
nan 7 7 8 12 11 11 7 5 5 5 6 12 14 9 7 3 9 11 10 7 4 6 11 13 10 10 8 9 11 5 7 8 6 13 7 8 15 8 9 9 6 7 9 8 7 nan
nan 10 9 7 10 10 8 5 5 5 5 10 16 13 10 12 9 7 10 8 9 8 11 8 5 9 8 8 12 10 8 9 15 9 4 3 7 8 10 13 13 10 7 7 10 8 nan
nan 6 9 10 5 4 6 7 5 5 6 12 14 10 8 9 14 9 9 11 7 3 8 12 11 7 8 10 10 8 7 6 14 8 3 8 12 10 11 5 9 13 6 5 10 11 nan
nan 3 4 7 8 5 4 5 6 7 7 11 11 9 8 12 12 11 9 12 7 6 5 6 8 7 11 10 7 7 6 9 13 14 11 6 9 6 10 14 6 3 6 8 10 10 nan
nan 7 6 3 5 8 7 5 5 7 11 12 10 7 7 15 12 9 14 9 7 10 5 6 9 9 4 4 7 10 7 7 7 11 9 7 8 13 5 5 9 12 15 6 5 6 nan
nan 13 13 11 7 5 5 7 3 5 9 11 9 8 8 13 17 8 10 15 16 14 15 13 10 11 6 -0 6 11 7 6 9 11 6 8 2 6 3 7 18 16 9 1 2 14 nan
nan 11 12 13 13 9 6 7 7 8 7 8 10 9 10 10 11 13 10 12 10 13 15 10 15 23 26 16 9 7 14 9 9 6 18 19 7 7 -3 -5 3 11 15 11 -0 -5 nan
nan 9 8 10 12 12 12 8 7 10 9 4 10 10 10 10 11 9 8 8 9 9 7 10 12 9 14 14 17 12 9 13 6 9 18 18 21 14 7 -1 -3 1 6 9 6 3 nan
nan 8 7 7 8 11 14 11 9 9 4 5 11 9 9 10 9 10 10 8 9 8 7 11 9 5 9 11 10 6 8 10 5 5 10 11 13 20 26 24 17 6 3 9 11 12 nan
nan 10 9 8 8 8 13 14 11 5 -1 6 8 11 11 9 9 9 10 9 7 9 8 9 8 8 10 11 7 7 5 4 4 3 8 8 9 11 15 17 21 26 23 17 14 15 nan
nan 13 10 8 8 10 11 12 13 5 -4 6 10 10 10 11 10 8 8 10 10 5 8 12 7 7 12 10 9 13 13 13 11 8 3 4 9 7 8 11 9 10 19 20 19 16 nan
nan 13 9 12 9 9 10 10 15 13 -5 -1 11 10 10 12 10 11 10 8 11 12 10 10 12 11 8 7 11 14 17 17 18 18 13 5 1 8 14 5 5 13 15 14 12 12 nan
nan 15 12 4 7 12 11 11 14 16 1 -2 8 9 11 12 11 12 14 12 10 10 12 12 12 11 10 8 9 11 9 9 11 16 21 17 8 2 6 10 9 10 6 13 12 14 nan
nan 12 8 8 8 8 10 10 11 15 10 3 8 9 9 9 13 12 9 11 10 9 10 13 13 9 9 9 11 10 10 11 10 12 10 13 14 12 6 7 4 5 14 18 7 -2 nan
nan 10 12 12 10 8 7 11 11 11 10 6 11 11 7 9 13 10 8 8 9 12 12 7 8 13 10 10 11 13 9 10 12 10 10 9 11 16 18 14 1 6 16 5 -0 4 nan
nan nan nan nan nan nan nan nan nan nan nan nan nan nan nan nan nan nan nan nan nan nan nan nan nan nan nan nan nan nan nan nan nan nan nan nan nan nan nan nan nan nan nan nan nan nan nan
CAPE
0 3 4 6 5 0 0 0 0 0 0 0 0 0 0 0 0 0 0 0 0 0 0 0 0 0 0 0 0 0 0 0 0 0 0 0 0 0 0 0 0 0 0 0 0 0 0
0 0 0 0 1 1 0 0 0 0 0 0 0 0 0 0 0 0 0 0 0 0 0 0 0 0 0 0 0 0 0 0 0 0 0 0 0 0 0 0 0 0 0 0 0 0 0
3 2 3 0 0 0 0 0 0 0 0 0 0 0 0 0 0 0 0 0 0 0 0 0 0 0 0 0 0 0 0 0 0 0 0 0 0 0 0 0 0 0 0 0 0 0 0
13 4 0 0 0 2 2 4 0 0 0 0 0 0 0 0 0 0 0 0 0 0 0 0 0 0 0 0 0 0 0 0 0 0 0 0 0 0 0 0 0 0 0 0 0 0 0
10 8 4 0 0 0 0 1 1 0 0 0 0 0 0 0 0 0 0 0 0 0 0 0 0 0 0 0 0 0 0 0 0 0 0 0 0 0 0 0 0 0 0 0 0 0 0
4 5 8 14 5 0 0 0 0 0 0 0 0 0 0 0 0 0 0 0 0 0 0 0 0 0 0 0 0 0 0 0 0 0 0 0 0 0 0 0 0 0 0 0 0 0 0
6 4 15 22 6 0 0 0 0 0 0 0 0 0 0 0 0 0 0 0 0 0 0 0 0 0 0 0 0 0 0 0 0 0 0 0 0 0 0 0 0 0 0 0 0 0 0
80 70 73 62 54 42 23 13 1 0 0 0 0 0 0 0 0 0 0 0 0 0 0 0 0 0 0 0 0 0 0 0 0 0 0 0 0 0 0 0 0 0 0 0 0 0 0
98 82 75 69 64 35 19 36 39 9 0 0 0 0 0 0 0 0 0 0 0 0 0 0 0 0 0 0 0 0 0 0 0 0 0 0 0 0 0 0 0 0 0 0 0 0 0
1 6 16 33 5 0 1 14 28 35 13 0 0 0 0 0 0 0 0 0 0 0 0 0 0 0 0 0 0 0 0 0 0 0 0 0 0 0 0 0 0 0 0 0 0 0 0
10 1 3 1 1 0 0 1 12 8 7 8 0 0 0 0 0 0 0 0 0 0 0 0 0 0 0 0 0 0 0 0 0 0 0 0 0 0 0 0 0 0 0 0 0 0 0
6 7 10 3 0 0 0 2 0 0 0 0 0 0 0 0 0 0 0 0 0 0 0 0 0 0 0 0 0 0 0 0 0 0 0 0 0 0 0 0 0 0 0 0 0 0 0
11 7 0 9 7 3 1 12 2 0 0 0 0 0 0 0 0 0 0 0 0 0 0 0 0 0 0 0 0 0 0 0 0 0 0 0 0 0 0 0 0 0 0 0 0 0 0
21 22 7 1 14 8 24 11 0 0 0 0 0 0 0 0 0 0 0 0 0 0 0 0 0 0 0 0 0 0 0 0 0 0 0 0 0 0 0 0 0 0 0 0 0 0 0
36 43 29 6 20 23 12 10 0 0 0 0 0 0 0 0 0 0 32 3 0 0 0 0 0 0 0 0 0 0 0 0 0 0 0 0 0 0 0 0 0 0 0 0 0 0 0
50 27 21 46 26 5 15 13 5 1 0 0 0 0 0 0 0 5 26 7 0 0 0 0 0 0 0 0 0 0 0 0 0 0 0 0 0 0 0 0 0 0 0 0 0 0 0
48 53 41 23 47 36 15 6 1 13 0 0 0 4 0 0 2 34 19 6 1 0 0 0 0 0 0 0 0 0 0 0 0 0 0 0 0 0 0 0 0 0 0 0 0 0 0
111 68 78 52 28 37 40 27 13 20 15 0 0 1 0 0 25 21 3 2 1 1 0 0 0 0 0 0 0 0 0 0 0 0 0 0 0 0 0 0 0 0 0 0 0 0 0
131 92 86 92 61 31 25 46 25 18 22 5 3 0 0 0 3 25 12 9 18 2 0 5 0 0 0 0 0 0 0 0 0 0 0 0 0 0 0 0 0 0 0 0 0 0 0
172 156 129 138 125 78 53 46 42 37 37 1 0 0 0 0 3 3 2 3 2 1 1 1 1 0 11 0 0 0 0 0 0 0 0 0 0 0 0 0 0 0 0 0 0 0 0
149 194 163 134 154 129 88 64 51 39 49 0 2 4 3 1 3 0 0 0 2 6 5 4 4 5 3 2 3 1 1 0 0 0 0 0 0 0 0 0 0 0 0 0 0 0 0
134 116 158 160 158 164 176 108 96 62 27 0 1 7 6 6 2 3 1 0 6 10 4 8 2 4 0 2 3 3 7 7 5 3 1 2 0 0 1 0 0 0 0 0 0 0 0
154 145 119 159 149 167 188 194 134 103 5 1 0 4 4 5 6 5 0 1 19 4 4 6 8 7 4 8 4 4 5 6 5 4 8 0 0 0 0 4 1 0 0 0 0 0 0
148 139 94 98 145 173 185 253 204 152 6 0 0 1 5 1 7 1 0 0 5 5 6 5 5 7 7 4 2 1 2 3 3 3 6 1 4 3 0 0 0 0 0 0 0 0 0
149 124 101 111 122 148 160 194 215 159 128 0 0 0 1 1 1 1 0 0 4 5 18 4 5 0 4 0 0 0 0 14 2 3 5 6 6 2 0 0 0 0 0 0 0 0 0
172 134 128 57 44 129 163 166 180 227 191 5 0 0 0 0 0 0 0 0 0 2 0 1 0 0 0 12 14 1 0 2 0 0 0 5 9 4 1 1 0 0 0 0 0 0 0
150 194 145 115 91 110 164 198 156 207 262 68 0 0 0 0 0 0 0 0 0 0 0 0 2 9 0 4 2 0 0 7 0 2 0 4 5 5 13 16 8 0 0 0 0 0 0
130 139 172 197 70 33 125 201 185 194 191 70 3 0 0 0 0 0 0 0 0 0 0 0 0 0 2 2 1 0 1 5 1 0 0 4 21 13 9 4 0 1 0 0 2 0 0
127 128 136 130 208 92 139 210 219 251 293 116 0 0 0 0 0 0 0 0 0 0 0 0 0 0 0 0 0 0 0 0 0 0 0 0 0 18 8 9 0 0 0 0 0 0 0